User: anonymous   Login
Location: Radford
(37.1320°N, 80.5770°W)
Time: 13:26:30
(UTC-04:00)
Language:

Okean 1-7 - Orbit

View from above orbital plane
View from above orbital plane
View from above satellite
View from above satellite

Ground track
Ground track

The orbit data is extracted from the following two-line orbital elements,

1 23317U 94066A   14297.48283501  .00001876  00000-0  21215-3 0  6909
2 23317 082.5363 306.6866 0020998 035.7533 124.4230 14.85822285 82308
Epoch (UTC): 24 October 2014 11:35:16
Eccentricity: 0.0020998
inclination: 82.5363°
perigee height: 596 km
apogee height: 625 km
right ascension of ascending node: 306.6866°
argument of perigee: 35.7533°
revolutions per day: 14.85822285
mean anomaly at epoch: 124.4230°
orbit number at epoch: 8230

The dashed part of the orbit path shows where the satellite is in the earth's shadow,  

DLR